Total_Precipitation_Accumulation
0.81 0.93 1.10 0.88 0.79 0.77 0.79 0.86 0.92 1.01 1.05 1.17 1.22 1.17 1.21 1.29 1.36 1.33 1.31 1.26 1.23 1.25 1.28 1.30 1.30 1.36 1.31 1.31 1.11 1.00 0.97 0.89 0.92 0.92 0.89 0.89 1.10 1.37 1.59 1.78 1.72 1.22 1.16
0.55 0.67 0.88 0.79 0.77 0.78 0.81 0.89 0.95 1.03 1.13 1.20 1.21 1.23 1.28 1.31 1.29 1.22 1.18 1.21 1.24 1.19 1.11 1.07 1.01 1.06 1.07 1.01 0.91 0.84 0.83 0.92 0.96 1.02 0.98 0.86 1.07 1.33 1.53 1.67 1.70 1.20 1.23
0.35 0.46 0.60 0.69 0.70 0.73 0.77 0.91 0.98 1.01 1.12 1.17 1.22 1.30 1.36 1.38 1.31 1.20 1.18 1.15 1.12 1.05 0.97 0.88 0.85 0.87 0.77 0.74 0.78 0.74 0.78 0.99 1.06 1.22 1.29 0.76 0.65 1.14 1.33 1.39 1.30 1.08 1.10
0.27 0.34 0.36 0.45 0.50 0.54 0.62 0.70 0.78 0.81 0.85 0.93 1.12 1.22 1.23 1.24 1.18 1.11 1.04 1.00 0.98 0.96 0.94 0.86 0.82 0.75 0.64 0.61 0.62 0.62 0.70 0.93 1.11 1.41 1.49 0.86 0.46 0.86 1.18 1.12 0.96 0.92 0.90
0.21 0.28 0.32 0.35 0.36 0.37 0.41 0.51 0.68 0.74 0.73 0.82 0.92 0.95 1.01 1.02 1.01 0.96 0.93 0.96 0.96 0.98 1.01 0.87 0.74 0.62 0.53 0.49 0.48 0.54 0.67 0.85 1.15 1.24 1.05 0.92 0.75 0.89 1.02 0.95 0.85 0.88 0.81
0.17 0.25 0.25 0.27 0.27 0.30 0.34 0.46 0.58 0.65 0.71 0.78 0.79 0.85 0.93 1.00 1.00 0.88 0.89 0.91 0.95 0.97 0.87 0.74 0.61 0.52 0.50 0.45 0.49 0.54 0.62 0.85 0.97 0.78 0.72 0.76 0.69 0.81 0.92 0.99 0.99 1.06 0.92
0.12 0.18 0.19 0.23 0.23 0.26 0.33 0.46 0.59 0.69 0.73 0.69 0.73 0.89 0.98 1.02 1.00 0.97 0.94 0.91 0.91 0.83 0.69 0.65 0.59 0.54 0.48 0.46 0.52 0.58 0.69 0.86 0.77 0.57 0.72 0.86 0.71 0.71 0.86 1.05 1.17 1.17 1.04
0.13 0.18 0.23 0.25 0.24 0.24 0.30 0.40 0.52 0.59 0.65 0.69 0.78 0.85 0.88 0.85 0.83 0.88 0.87 0.84 0.78 0.70 0.60 0.56 0.52 0.50 0.52 0.52 0.52 0.57 0.72 0.77 0.57 0.51 0.52 0.62 0.56 0.64 0.84 1.05 1.16 1.17 1.07
0.27 0.25 0.27 0.31 0.32 0.32 0.37 0.48 0.59 0.62 0.72 0.80 0.84 0.84 0.80 0.77 0.74 0.74 0.72 0.72 0.67 0.60 0.51 0.52 0.47 0.45 0.49 0.52 0.51 0.58 0.72 0.79 0.69 0.64 0.53 0.61 0.65 0.79 0.95 1.08 1.18 1.17 1.07
0.62 0.46 0.39 0.47 0.56 0.50 0.46 0.55 0.63 0.68 0.73 0.80 0.84 0.86 0.89 0.87 0.79 0.76 0.68 0.68 0.66 0.63 0.59 0.58 0.54 0.51 0.54 0.55 0.58 0.70 0.81 0.72 0.58 0.60 0.78 0.65 0.74 0.96 1.18 1.29 1.32 1.34 1.20
0.95 0.67 0.50 0.46 0.59 0.68 0.62 0.60 0.70 0.74 0.77 0.85 0.98 1.00 1.10 1.22 1.09 1.09 0.86 0.89 0.91 0.91 0.89 0.88 0.81 0.75 0.68 0.64 0.80 0.96 0.89 0.78 0.77 0.78 0.82 0.74 0.82 1.09 1.37 1.49 1.51 1.56 1.45
1.11 0.88 0.72 0.63 0.59 0.66 0.67 0.84 1.07 1.02 1.06 1.22 1.45 1.47 1.64 1.72 1.62 1.13 1.12 1.34 1.50 1.54 1.46 1.47 1.40 1.17 1.01 0.98 1.50 1.54 0.99 0.97 1.03 1.03 0.87 0.84 1.02 1.35 1.70 1.69 1.65 1.69 1.62
1.42 1.11 0.89 0.83 0.84 0.82 0.96 0.95 1.13 1.35 1.54 1.62 1.62 1.67 1.84 1.73 1.47 1.24 1.32 1.51 1.66 1.75 1.87 2.12 2.14 1.82 1.82 1.90 1.95 1.66 1.10 1.14 1.43 1.28 1.29 1.32 1.51 1.79 2.08 2.00 1.81 1.71 1.66
1.53 1.41 1.29 1.18 1.16 1.21 1.11 1.21 1.22 1.26 1.42 1.58 1.70 1.69 1.82 2.00 1.89 1.75 1.85 1.83 1.97 2.13 2.53 2.49 2.66 2.51 2.28 2.02 1.85 1.63 1.42 1.41 1.57 1.68 1.84 1.59 1.67 2.01 2.47 2.46 2.14 1.95 1.81
1.97 1.80 1.63 1.62 1.67 1.62 1.57 1.60 1.45 1.45 1.53 1.63 1.75 1.88 1.94 2.04 2.04 2.04 2.13 2.18 1.92 2.04 2.34 2.61 2.52 2.67 2.70 2.49 2.13 1.93 1.80 1.82 1.79 1.91 2.11 1.98 1.93 2.04 2.40 2.63 2.56 2.37 2.22
2.32 2.06 1.92 1.90 2.00 2.07 2.01 2.03 1.96 1.70 1.78 1.74 1.92 1.98 2.07 2.14 2.22 2.35 2.38 2.35 2.07 2.06 2.31 2.52 2.43 2.77 2.71 2.67 2.29 2.10 1.97 1.88 1.70 1.78 2.01 2.10 1.99 1.91 2.13 2.63 2.87 2.75 2.64
2.78 2.59 2.37 2.25 2.42 2.66 2.73 2.63 2.41 2.17 1.97 1.98 2.06 2.11 2.18 2.18 2.36 2.37 2.31 2.32 2.27 2.16 2.37 2.50 2.55 2.70 2.55 2.44 2.40 2.26 2.13 2.09 1.86 1.78 1.91 2.12 1.99 1.88 2.03 2.42 2.82 2.90 2.82
3.01 2.95 2.64 2.43 2.88 3.25 3.28 3.20 2.91 2.57 2.28 2.15 2.18 2.18 2.28 2.31 2.42 2.58 2.36 2.25 2.46 2.40 2.56 2.88 2.85 2.96 3.05 2.95 2.68 2.35 2.14 2.23 1.89 1.80 1.86 2.07 2.26 1.93 2.08 2.39 2.71 2.81 2.95
3.17 3.14 3.01 3.08 3.20 3.35 3.45 3.53 3.26 2.98 2.69 2.39 2.23 2.17 2.23 2.32 2.51 2.86 2.71 2.69 2.67 2.68 2.72 2.44 3.03 3.33 3.36 3.21 2.68 2.39 2.08 2.05 1.90 1.74 1.80 1.77 1.95 2.01 2.01 2.12 2.46 2.53 2.86
3.31 3.42 3.32 3.41 3.54 3.80 4.03 4.19 3.78 3.34 2.99 2.69 2.45 2.42 2.47 2.64 2.77 3.03 2.85 2.79 2.76 2.90 2.89 2.94 3.37 3.35 3.10 3.11 2.48 2.12 1.98 1.77 1.75 1.69 1.50 1.56 1.64 1.64 1.84 1.93 2.23 1.94 2.24
3.53 3.66 3.65 3.84 4.18 4.49 4.36 4.04 3.82 3.52 3.26 3.03 2.76 2.58 2.60 2.56 2.71 3.02 2.88 3.09 3.00 2.88 2.87 2.91 3.18 3.25 2.97 3.15 3.04 2.51 1.97 1.54 1.56 1.42 1.43 1.57 1.54 1.68 1.90 2.11 2.34 2.31 2.17
3.60 4.01 4.10 4.25 4.55 4.64 4.49 4.38 4.21 4.04 3.62 3.45 3.27 3.03 2.67 2.47 2.55 2.65 2.99 2.81 2.83 2.90 2.84 2.97 3.19 3.06 2.68 3.10 3.31 3.32 2.68 2.20 1.68 1.25 1.55 1.69 1.70 1.91 1.88 1.96 2.30 2.56 2.41
2.93 3.18 3.46 3.92 4.37 4.47 4.53 4.45 4.39 4.37 3.85 3.57 3.37 3.11 2.77 2.51 2.43 2.57 2.73 2.77 2.76 2.67 2.75 2.95 3.00 3.01 2.86 2.94 3.15 3.43 3.11 2.58 2.07 1.54 1.41 1.55 1.81 2.00 1.92 1.96 2.00 2.22 2.23
2.22 2.53 2.95 3.37 3.68 3.87 3.97 3.95 3.94 3.85 3.69 3.60 3.43 3.00 2.74 2.49 2.38 2.44 2.51 2.56 2.59 2.46 2.54 2.39 2.51 2.93 3.04 2.80 2.91 2.85 2.82 2.77 2.60 2.07 1.61 1.45 1.54 1.67 1.85 1.73 1.70 1.94 2.14
2.07 2.39 2.69 2.98 3.25 3.40 3.48 3.53 3.59 3.46 3.44 3.35 3.15 2.86 2.59 2.38 2.23 2.06 2.14 2.37 2.41 2.29 2.23 2.26 2.46 2.60 2.62 2.60 2.69 2.75 2.82 2.82 2.51 2.29 1.89 1.59 1.46 1.28 1.39 1.49 1.58 1.67 1.84
2.16 2.52 2.79 3.00 3.20 3.25 3.03 2.92 2.91 2.94 2.99 2.92 2.72 2.49 2.23 2.11 1.98 1.81 1.89 2.11 2.15 2.14 2.12 2.10 2.17 2.28 2.34 2.39 2.48 2.54 2.67 2.63 2.52 2.55 2.11 1.76 1.57 1.16 1.14 1.25 1.36 1.46 1.62